[TLELIST] Archives

 

[TLELIST] Current TLEs

July 1st 2025 PDT

HST 1 20580U 90037B 25181.65432016 .00004297 00000-0 15696-3 0 9990 2 20580 28.4688 313.6252 0001800 237.5948 122.4473 15.25438442734748 ISS (ZARYA) 1 25544U 98067A 25182.18744301 .00005176 00000-0 97537-4 0 9990 2 25544 51.6345 237.6869 0002331 315.1210 44.9590 15.50314091517338 CXO 1 25867U 99040B 25182.66035926 .00000377 00000-0 00000-0 0 9992 2 25867 49.8474 128.9801 8399593 309.7738 0.2684 0.37807753 15992 ...Continue Reading

[TLELIST] Current TLEs

July 1st 2025 PDT

HST 1 20580U 90037B 25181.65432016 .00004297 00000-0 15696-3 0 9990 2 20580 28.4688 313.6252 0001800 237.5948 122.4473 15.25438442734748 ISS (ZARYA) 1 25544U 98067A 25182.18744301 .00005176 00000-0 97537-4 0 9990 2 25544 51.6345 237.6869 0002331 315.1210 44.9590 15.50314091517338 CXO 1 25867U 99040B 25182.66035926 .00000377 00000-0 00000-0 0 9992 2 25867 49.8474 128.9801 8399593 309.7738 0.2684 0.37807753 15992 ...Continue Reading

[TLELIST] Current TLEs

June 30th 2025 PDT

HST 1 20580U 90037B 25181.06550892 .00004120 00000-0 15020-3 0 9994 2 20580 28.4689 317.6170 0001824 230.7154 129.3279 15.25433042734912 ISS (ZARYA) 1 25544U 98067A 25181.15607184 .00004733 00000-0 89907-4 0 9993 2 25544 51.6344 242.7996 0002295 311.2029 48.8762 15.50302098517179 CXO 1 25867U 99040B 25182.66035926 .00000377 00000-0 00000-0 0 9992 2 25867 49.8474 128.9801 8399593 309.7738 0.2684 0.37807753 15992 ...Continue Reading

[TLELIST] Current TLEs

June 29th 2025 PDT

HST 1 20580U 90037B 25179.75703283 .00004124 00000-0 15038-3 0 9994 2 20580 28.4690 326.4877 0001899 214.1208 145.9265 15.25421852734458 ISS (ZARYA) 1 25544U 98067A 25180.40111667 .00006198 00000-0 11529-3 0 9997 2 25544 51.6371 246.5382 0002105 307.6057 156.2290 15.50296331517059 CXO 1 25867U 99040B 25182.66035926 .00000377 00000-0 00000-0 0 9992 2 25867 49.8474 128.9801 8399593 309.7738 0.2684 0.37807753 15992 ...Continue Reading

[TLELIST] Current TLEs

June 28th 2025 PDT

HST 1 20580U 90037B 25178.71024499 .00004448 00000-0 16287-3 0 9990 2 20580 28.4688 333.5833 0001995 201.3866 158.6645 15.25413367734298 ISS (ZARYA) 1 25544U 98067A 25179.15776912 .00006109 00000-0 11381-3 0 9995 2 25544 51.6349 252.7052 0002263 302.4301 57.6469 15.50279857516861 CXO 1 25867U 99040B 25180.01489709 .00000406 00000-0 00000-0 0 9994 2 25867 49.8035 129.0801 8406114 309.7498 0.1403 0.37805167 15982 ...Continue Reading

[TLELIST] Current TLEs

June 27th 2025 PDT

HST 1 20580U 90037B 25177.66345114 .00004439 00000-0 16260-3 0 9994 2 20580 28.4690 340.6799 0002056 189.0850 170.9707 15.25404707734132 ISS (ZARYA) 1 25544U 98067A 25178.19083724 .00010790 00000-0 19492-3 0 9992 2 25544 51.6352 257.4981 0002229 299.2930 60.7836 15.50270582516714 CXO 1 25867U 99040B 25180.01489709 .00000406 00000-0 00000-0 0 9994 2 25867 49.8035 129.0801 8406114 309.7498 0.1403 0.37805167 15982 ...Continue Reading

[TLELIST] Current TLEs

June 26th 2025 PDT

HST 1 20580U 90037B 25176.74750148 .00004031 00000-0 14691-3 0 9993 2 20580 28.4689 346.8889 0002147 178.5189 181.5412 15.25396764733994 ISS (ZARYA) 1 25544U 98067A 25177.22389621 .00008071 00000-0 14796-3 0 9991 2 25544 51.6358 262.2903 0002177 292.8641 67.2118 15.50247662516569 CXO 1 25867U 99040B 25180.01489709 .00000406 00000-0 00000-0 0 9994 2 25867 49.8035 129.0801 8406114 309.7498 0.1403 0.37805167 15982 ...Continue Reading

[TLELIST] Current TLEs

June 25th 2025 PDT

HST 1 20580U 90037B 25176.15867404 .00003942 00000-0 14351-3 0 9995 2 20580 28.4690 350.8805 0002188 172.2630 187.7999 15.25392441734162 ISS (ZARYA) 1 25544U 98067A 25176.12801460 .00008634 00000-0 15782-3 0 9990 2 25544 51.6361 267.7216 0002169 287.1941 72.8811 15.50230128516393 CXO 1 25867U 99040B 25174.72419316 .00000421 00000-0 00000+0 0 9998 2 25867 49.6806 129.3423 8417193 309.6282 0.0394 0.37805500 27126 ...Continue Reading

[TLELIST] Current TLEs

June 24th 2025 PDT

HST 1 20580U 90037B 25174.91558896 .00004148 00000-0 15150-3 0 9996 2 20580 28.4691 359.3068 0002339 158.7567 201.3125 15.25383683733716 ISS (ZARYA) 1 25544U 98067A 25175.16104992 .00007620 00000-0 14032-3 0 9990 2 25544 51.6364 272.5136 0002157 282.3316 77.7431 15.50212564516241 CXO 1 25867U 99040B 25174.72419316 .00000421 00000-0 00000+0 0 9998 2 25867 49.6806 129.3423 8417193 309.6282 0.0394 0.37805500 27126 ...Continue Reading

[TLELIST] Current TLEs

June 24th 2025 PDT

HST 1 20580U 90037B 25174.91558896 .00004148 00000-0 15150-3 0 9996 2 20580 28.4691 359.3068 0002339 158.7567 201.3125 15.25383683733716 ISS (ZARYA) 1 25544U 98067A 25175.16104992 .00007620 00000-0 14032-3 0 9990 2 25544 51.6364 272.5136 0002157 282.3316 77.7431 15.50212564516241 CXO 1 25867U 99040B 25174.72419316 .00000421 00000-0 00000+0 0 9998 2 25867 49.6806 129.3423 8417193 309.6282 0.0394 0.37805500 27126 ...Continue Reading
  • This mailing list is a public mailing list - anyone may join or leave, at any time.
  • This mailing list is announce-only.

International Space Station (ISS) / Hubble Space Telescope (HST) / Chandra X-Ray Observatory Orbital Data via EMAIL

Privacy Policy:

Private list